User: anonymous   Login
Location: Unspecified
(0.0000°N, 0.0000°E)
Time: 11:45:12
(UTC+00:00)
Language:

DMSP B5D2-4 - Orbit

View from above orbital plane
View from above orbital plane
View from above satellite
View from above satellite

Ground track
Ground track

The orbit data is extracted from the following two-line orbital elements,

1 18822U 88006A   19321.75563312 +.00000002 +00000-0 +18053-4 0  9994
2 18822 098.4903 191.2070 0005692 319.9184 040.1577 14.27255380653345
Epoch (UTC): 17 November 2019 18:08:06
Eccentricity: 0.0005692
inclination: 98.4903°
perigee height: 797 km
apogee height: 805 km
right ascension of ascending node: 191.2070°
argument of perigee: 319.9184°
revolutions per day: 14.27255380
mean anomaly at epoch: 40.1577°
orbit number at epoch: 65334

The dashed part of the orbit path shows where the satellite is in the earth's shadow,  

DLR